Zurück zum Katalog

STARLINK-32378

AktivKommunikationVLEO
NORAD 61064·PAYLOAD·🇺🇸 United States

Gestartet Sep 13, 2024 von Vandenberg Space Force Base

Loading…

Nächste Überflüge (nächste 24 Stunden)

TLE

AktuellSource: CelesTrak SupGP

Epoche: Sep 15, 2026, 02:57 UTC

1 61064C 24164Q   26258.12340278  .00008187  00000+0  26326-3 0  2587
2 61064  53.1594 289.9074 0001151  74.9781 125.9819 15.31700650    13

Verfolge STARLINK-32378 in Echtzeit mit AllMySat

Download on the App Store